SHIYAN-12 01 (SY-12 01)

Last updated on Sun Jun 21 2026 00:03:08 GMT+0000 (Coordinated Universal Time)

1 50321U 21129A 26171.00754552 .00000091 00000+0 00000+0 0 9999 2 50321 3.6828 79.8734 0003238 288.0982 320.7124 1.00040617 16523
UTC large
Height (km)
Speed (km/s)
/
Latitude / Longitude
Inclination (degrees)
Orbital Period (minutes)
Azimuth
Elevation
Range (km)
Doppler Factor

Next 0 passes for location: London (51.5072 / 0.1276)

No passes found over London.
SHIYAN-12 01 (SY-12 01)